Date String (YYYY-MM-DD hh:mm:ss) UTC,Instrument flags,Ambient pressure (hPa),Sample flow (lpm),Bypass flow (lpm),Sample temperature (°C),Ambient temperature (°C),ASC tube jacket temperature (°C),LED temperature (°C),Box temperature (°C),Sample RH (%),Span deviation,Mass concentration (μg/m³),Mass concentration (μg/m³),Mass concentration (μg/m³)
DateTimeUTC,F1_M11,P_M11,Q1_M11,Q2_M11,T1_M11,T2_M11,T3_M11,T4_M11,T5_M11,U1_M11,ZSPAN_M11,X2_M11,X0_M11,X1_M11
2022-06-24 18:00:00,,0824.9,5.00,0.00,29.1,27.4,00.0,37.8,30.9,18.6,0000.0,0003.37,0008.87,0002.31
2022-06-24 18:01:00,,0824.8,4.99,0.00,29.1,27.5,00.0,37.8,31.0,17.9,0000.0,0003.37,0008.86,0002.32
2022-06-24 18:02:00,,0824.8,4.99,0.00,29.1,27.7,00.0,37.8,31.0,17.2,0000.0,0003.34,0008.57,0002.33
2022-06-24 18:03:00,,0824.7,5.00,0.00,29.1,27.8,00.0,37.8,31.1,17.6,0000.0,0003.34,0008.53,0002.33
2022-06-24 18:04:00,,0824.7,5.00,0.00,29.1,28.0,00.0,37.9,31.1,17.4,0000.0,0003.33,0008.01,0002.32
2022-06-24 18:05:00,,0824.7,4.99,0.00,29.2,28.2,00.0,37.9,31.2,16.5,0000.0,0003.30,0008.05,0002.32
2022-06-24 18:06:00,,0824.6,5.00,0.00,29.2,28.2,00.0,37.9,31.2,16.6,0000.0,0003.28,0008.63,0002.33
2022-06-24 18:07:00,,0824.6,5.00,0.00,29.2,27.6,00.0,37.8,31.0,16.6,0000.0,0003.25,0008.53,0002.31
2022-06-24 18:08:00,,0824.5,5.01,0.00,29.1,27.1,00.0,37.8,30.9,16.9,0000.0,0003.21,0008.40,0002.30
2022-06-24 18:09:00,,0824.6,5.02,0.00,29.1,27.2,00.0,37.8,30.9,17.1,0000.0,0003.20,0007.94,0002.28
2022-06-24 18:10:00,,0824.5,4.99,0.00,29.1,27.3,00.0,37.8,30.9,17.7,0000.0,0003.22,0008.23,0002.28
2022-06-24 18:11:00,,0824.4,4.99,0.00,29.1,27.4,00.0,37.8,30.9,17.2,0000.0,0003.21,0008.39,0002.27
2022-06-24 18:12:00,,0824.5,5.00,0.00,29.1,27.6,00.0,37.8,31.0,17.2,0000.0,0003.20,0008.31,0002.26
2022-06-24 18:13:00,,0824.4,5.00,0.00,29.1,27.8,00.0,37.8,31.1,17.2,0000.0,0003.21,0008.35,0002.26
2022-06-24 18:14:00,,0824.4,5.00,0.00,29.1,28.0,00.0,37.9,31.1,17.0,0000.0,0003.21,0008.29,0002.27
2022-06-24 18:15:00,,0824.5,5.00,0.00,29.2,28.1,00.0,37.9,31.2,16.5,0000.0,0003.23,0008.51,0002.29
2022-06-24 18:16:00,,0824.7,5.01,0.00,29.2,28.2,00.0,37.9,31.2,15.9,0000.0,0003.23,0009.39,0002.31
2022-06-24 18:17:00,,0824.4,5.00,0.00,29.2,27.7,00.0,37.8,31.1,16.2,0000.0,0003.24,0008.63,0002.32
2022-06-24 18:18:00,,0824.5,5.01,0.00,29.1,27.1,00.0,37.8,30.9,18.0,0000.0,0003.23,0008.85,0002.33
2022-06-24 18:19:00,,0824.5,5.00,0.00,29.1,27.1,00.0,37.8,30.9,18.0,0000.0,0003.26,0009.36,0002.34
2022-06-24 18:20:00,,0824.4,4.99,0.00,29.1,27.2,00.0,37.8,30.9,18.9,0000.0,0003.23,0009.83,0002.33
2022-06-24 18:21:00,,0824.3,5.01,0.00,29.0,27.3,00.0,37.8,30.9,18.9,0000.0,0003.26,0010.90,0002.34
2022-06-24 18:22:00,,0824.3,4.99,0.00,29.1,27.5,00.0,37.8,31.0,19.2,0000.0,0003.28,0010.70,0002.35
2022-06-24 18:23:00,,0824.3,5.00,0.00,29.1,27.7,00.0,37.8,31.0,18.9,0000.0,0003.32,0010.76,0002.37
2022-06-24 18:24:00,,0824.3,5.01,0.00,29.1,27.9,00.0,37.8,31.1,19.4,0000.0,0003.42,0012.22,0002.39
2022-06-24 18:25:00,,0824.4,4.99,0.00,29.1,28.0,00.0,37.9,31.1,19.6,0000.0,0003.48,0013.38,0002.40
2022-06-24 18:26:00,,0824.4,5.00,0.00,29.2,28.2,00.0,37.9,31.2,19.3,0000.0,0003.49,0014.64,0002.39
2022-06-24 18:27:00,,0824.4,4.99,0.00,29.2,27.7,00.0,37.8,31.1,18.6,0000.0,0003.54,0014.10,0002.39
2022-06-24 18:28:00,,0824.5,4.99,0.00,29.1,27.1,00.0,37.8,30.9,18.7,0000.0,0003.61,0014.99,0002.39
2022-06-24 18:29:00,,0824.6,5.00,0.00,29.0,27.0,00.0,37.8,30.8,19.3,0000.0,0003.69,0016.38,0002.40
2022-06-24 18:30:00,,0824.7,5.01,0.00,29.0,27.0,00.0,37.8,30.8,19.1,0000.0,0003.72,0017.27,0002.42
2022-06-24 18:31:00,,0824.7,4.99,0.00,29.0,27.2,00.0,37.8,30.8,18.8,0000.0,0003.77,0017.29,0002.44
2022-06-24 18:32:00,,0824.8,5.00,0.00,29.0,27.4,00.0,37.8,30.9,18.6,0000.0,0003.75,0015.81,0002.43
2022-06-24 18:33:00,,0824.6,4.99,0.00,29.0,27.6,00.0,37.8,30.9,18.3,0000.0,0003.76,0015.93,0002.43
2022-06-24 18:34:00,,0824.7,5.01,0.00,29.0,27.8,00.0,37.8,31.0,18.3,0000.0,0003.75,0015.96,0002.42
2022-06-24 18:35:00,,0824.4,5.00,0.00,29.1,27.9,00.0,37.8,31.1,18.6,0000.0,0003.65,0014.60,0002.41
2022-06-24 18:36:00,,0824.7,5.00,0.00,29.1,28.1,00.0,37.8,31.1,17.7,0000.0,0003.59,0013.51,0002.40
2022-06-24 18:37:00,,0824.5,4.99,0.00,29.1,28.2,00.0,37.8,31.2,17.8,0000.0,0003.57,0012.07,0002.39
2022-06-24 18:38:00,,0824.5,5.00,0.00,29.2,27.9,00.0,37.8,31.1,18.8,0000.0,0003.53,0011.85,0002.39
2022-06-24 18:39:00,,0824.5,5.00,0.00,29.1,27.1,00.0,37.8,30.9,18.6,0000.0,0003.49,0011.28,0002.40
2022-06-24 18:40:00,,0824.4,5.02,0.00,29.0,27.0,00.0,37.7,30.8,18.3,0000.0,0003.43,0009.52,0002.40
2022-06-24 18:41:00,,0824.5,5.00,0.00,29.0,27.0,00.0,37.7,30.8,18.5,0000.0,0003.40,0008.26,0002.39
2022-06-24 18:42:00,,0824.4,4.99,0.00,29.0,27.1,00.0,37.7,30.8,18.3,0000.0,0003.37,0007.74,0002.39
2022-06-24 18:43:00,,0824.4,5.00,0.00,29.0,27.3,00.0,37.8,30.9,18.1,0000.0,0003.32,0008.42,0002.40
2022-06-24 18:44:00,,0824.5,5.00,0.00,29.0,27.5,00.0,37.8,30.9,17.6,0000.0,0003.33,0008.91,0002.39
2022-06-24 18:45:00,,0824.5,5.01,0.00,29.0,27.7,00.0,37.8,31.0,17.6,0000.0,0003.32,0008.92,0002.38
2022-06-24 18:46:00,,0824.4,5.01,0.00,29.0,27.9,00.0,37.8,31.0,17.6,0000.0,0003.29,0009.12,0002.37
2022-06-24 18:47:00,,0824.4,4.99,0.00,29.1,28.0,00.0,37.8,31.1,18.0,0000.0,0003.29,0009.59,0002.37
2022-06-24 18:48:00,,0824.4,5.00,0.00,29.1,28.2,00.0,37.8,31.2,18.5,0000.0,0003.31,0010.31,0002.38
2022-06-24 18:49:00,,0824.4,5.00,0.00,29.2,28.0,00.0,37.8,31.1,18.8,0000.0,0003.33,0009.91,0002.37
2022-06-24 18:50:00,,0824.3,5.00,0.00,29.1,27.2,00.0,37.8,30.9,18.5,0000.0,0003.32,0009.89,0002.35
2022-06-24 18:51:00,,0824.3,5.00,0.00,29.0,27.0,00.0,37.7,30.8,18.3,0000.0,0003.36,0010.09,0002.35
2022-06-24 18:52:00,,0824.3,4.99,0.00,29.0,27.0,00.0,37.7,30.8,18.5,0000.0,0003.35,0010.11,0002.35
2022-06-24 18:53:00,,0824.3,5.00,0.00,29.0,27.1,00.0,37.7,30.8,18.4,0000.0,0003.33,0010.12,0002.33
2022-06-24 18:54:00,,0824.3,4.98,0.00,29.0,27.3,00.0,37.7,30.9,18.3,0000.0,0003.36,0010.04,0002.33
2022-06-24 18:55:00,,0824.2,5.01,0.00,29.0,27.5,00.0,37.8,30.9,18.4,0000.0,0003.35,0010.49,0002.35
2022-06-24 18:56:00,,0824.3,5.00,0.00,29.0,27.7,00.0,37.8,31.0,18.2,0000.0,0003.36,0010.71,0002.36
2022-06-24 18:57:00,,0824.3,5.00,0.00,29.0,27.9,00.0,37.8,31.0,18.2,0000.0,0003.41,0011.68,0002.38
2022-06-24 18:58:00,,0824.4,4.99,0.00,29.1,28.0,00.0,37.8,31.1,17.6,0000.0,0003.41,0012.38,0002.39
2022-06-24 18:59:00,,0824.4,5.01,0.00,29.1,28.1,00.0,37.8,31.1,17.6,0000.0,0003.41,0011.91,0002.38
